STARLINK-34558, 64721

Orbit data source: Space-Track

STARLINK-34558, 64721 is a payload satellite owned by SpaceX/Seattle (US) in LEO that was launched on Sat, 28 Jun 2025 UTC via an FALCON 9 launch vehicle from the Air Force Western Test Range (AFWTR). Payload-class satellites include a variety of spacecraft equipped with specific instruments for various scientific and technological missions. These include communications satellites like Starlink; space stations such as the ISS; scientific satellites like the Hubble; Earth observation satellites from companies like Planet Labs, Umbra, and HawkEye 360; GPS; miniature CubeSats for education and research; and military/defense satellites.

Loading next visibility...
Identifier
64721, 2025-142AB
Orbit
LEO
Country
Flag of USUS
Related business
Manufacturer
SpaceX/Seattle
Mission
Operational Commercial Communications
Bus & Motor
STARLINK V2MO, Unknown motor
Mass
575 kg wet, ~530 kg dry
Launch date (UTC)
2025-06-28 (1 year ago)
Launch vehicle
FALCON 9
Launch site
Air Force Western Test Range (AFWTR)
Object type
Payload
Rocket body
Debris
Shape & HBR
Box + 2 Pan, 17.7 m
Radar Cross Section
36.964 m², Large (>1 m²)

Expand to show TLE details & history
Last TLE update: 5 hours ago

TLE from 5 hours ago
0 STARLINK-34558
1 64721U 25142AB  26207.63768129  .00002940  00000-0  25402-3 0  9994
2 64721  70.0028 324.1200 0003138 271.7561  88.3238 14.98339595 60278
Epoch: 2026-07-26T15:18Z
TLE epoch observation values (Epoch: 2026-07-26T15:18:15.663Z)
Latitude
-0.00008°
Longitude
150.22196°
Altitude
574.387 km
Speed
7.574 km/s
True Right ascension
21h 36m 28s
True Declination
0° 00' 00"
Sunlit
Object was in full shadow at epoch
Visualization orbit readout
Latitude
Unknown
Longitude
Unknown
Altitude
Unknown
Speed
Unknown
Apparent Right ascension
Unknown
Apparent Declination
Unknown
Sunlit
N/A
Visualization observer readout
Local Sidereal Time
09:51:16
Azimuth
Unknown
Elevation
Unknown
Doppler factor
Unknown
Orbital elements
Apogee altitude
572.154 km
Perigee altitude
567.794 km
Semi-major axis
6,948.111 km
Eccentricity
0.00031
Inclination
70.0028°
RAAN
324.12°
Arg. of periapsis
271.7561°
True anomaly
88.35974°
Mean anomaly
88.3238°
Eccentric anomaly
88.34177°
Mean motion
3.74751 °/min
Orbital period
96.06 mins
BSTAR
0.00025402
Loading maneuver chart data...
Computing Atmospheric mass density...
Loading historical data...
Loading historical data...
Loading historical data...
Loading historical data...
Loading historical data...
Loading historical data...
Loading historical data...

Documentation

Showing up to 5 results
|